sat.trackr.live / text

‹ back to catalog

STARLINK-34082

NORAD 64100 · 2025-110E

PAYLOAD ACTIVE UNKNOWN

§ Identity

Operator
Country
US
Launch date
2025-05-23
Launch site
AFWTR
Launch vehicle
Mass (kg)
RCS (m²)

Purposes: comms

External: N2YO · Heavens-Above · Gunter

§ Orbital elements

Epoch: 2026-05-25T00:12:01.967040Z

Period
94.11 min
Inclination
53.1611°
Eccentricity
0.0001007
Mean motion
15.30203907 rev/d
Perigee alt
474.5 km
Apogee alt
475.9 km
Semi-major
6,853.3 km
B*
2.5140e-4
RAAN
32.5257°
Arg perigee
100.5870°
Mean anomaly
259.5245°
Rev number
5,756

§ Raw data

STARLINK-340821 64100U 25110E   26145.00835610  .00007095  00000+0  25140-3 0  99962 64100  53.1611  32.5257 0001007 100.5870 259.5245 15.30203907 57568

JSON: /api/v1/satellites/64100 · /tle

For live sub-satellite position, see the globe view (requires WebGL).

§ Visibility from observer

Set your observer location to see the next 7 days of passes ≥ 10°. The values pass through the URL so the page stays shareable.

No JS? Fill the form by hand. The geolocation button needs JavaScript.